Location: Bühlhof
(48.7849°N, 8.6361°E)
Time: 22:45:47
(UTC+00:00)

NOSS 3-1 (A) - Pass Details

Date: 19 January 2026
Orbit: 613 x 1593 km, 63.4° (Epoch: 10 January)

Event Time Altitude Azimuth Distance (km) Brightness Sun altitude
Rises 18:01:29 0° 317° (NW) 3,607 7.0 -19.1°
Reaches altitude 10° 18:03:53 10° 323° (NW) 2,790 6.2 -19.5°
Maximum altitude 18:10:26 51° 39° (NE) 1,476 4.1 -20.6°
Enters shadow 18:13:44 33° 93° (E) 2,010 4.6 -21.1°
